Grand Forks, ND

8:40 PM CDT on April 30, 2017 (GMT -0500)
Grand Forks International

Weather History for KGFK - February, 2014

Change the Weather History Date:

Thursday, February 6, 2014

  Actual Average Record
Temperature  
Mean Temperature -3 °F 9 °F  
Max Temperature 9 °F 19 °F 47 °F (2002)
Min Temperature -16 °F -1 °F -34 °F (1967)
Degree Days  
Heating Degree Days 68 56  
Month to date heating degree days 400 339  
Since 1 July heating degree days 6492 6005  
Cooling Degree Days 0 0  
Month to date cooling degree days 0 0  
Year to date cooling degree days 0 0  
Moisture  
Dew Point -10 °F    
Average Humidity 75    
Maximum Humidity 81    
Minimum Humidity 68    
Precipitation  
Precipitation T in 0.02 in 0.25 in (1946)
Month to date precipitation T 0.09  
Year to date precipitation 0.69 0.64  
Snow  
Snow T in 0.20 in 3.00 in (1946)
Month to date snowfall T 1.4  
Since 1 July snowfall 40.3 32.0  
Snow Depth 11.00 in    
Sea Level Pressure  
Sea Level Pressure 30.26 in    
Wind  
Wind Speed 13 mph (WSW)    
Max Wind Speed 26 mph    
Max Gust Speed 30 mph    
Visibility 9 miles    
Events Snow    
T = Trace of Precipitation, MM = Missing Value Source: NWS Daily Summary

Daily Weather History Graph

Daily Weather History Graph

Search for Another Location

Airport or City:

Trip Planner

Search our weather history database for the weather conditions in past years. The results will help you decide how hot, cold, wet, or windy it might be!

Date:

Astronomy

Feb. 06, 2014 Rise Set
Actual Time 7:49 AM CST 5:37 PM CST
Civil Twilight 7:16 AM CST 6:09 PM CST
Nautical Twilight 6:39 AM CST 6:46 PM CST
Astronomical Twilight 6:03 AM CST 7:22 PM CST
Moon 11:08 AM CST (2/6) 1:06 AM CST (2/6)
Length of Visible Light 10h 53m
Length of Day
9h 47m
Waxing Crescent, 49% of the Moon is Illuminated
Feb 6
Waxing Crescent
Feb 6
First Quarter
Feb 14
Full
Feb 22
Last Quarter
Mar 1
New

Hourly Weather History & Observations

Time (CST) Temp. Windchill Dew Point Humidity Pressure Visibility Wind Dir Wind Speed Gust Speed Precip Events Conditions
12:53 AM -14.1 °F -29.9 °F -20.0 °F 75% 30.50 in 10.0 mi WSW 6.9 mph - N/A   Clear
1:53 AM -14.1 °F -32.6 °F -20.0 °F 75% 30.46 in 10.0 mi WSW 9.2 mph - N/A   Clear
2:53 AM -15.0 °F -33.7 °F -20.0 °F 78% 30.44 in 10.0 mi WSW 9.2 mph - N/A   Clear
3:53 AM -13.0 °F -31.3 °F -18.9 °F 75% 30.42 in 10.0 mi WSW 9.2 mph - N/A   Clear
4:53 AM -13.0 °F -31.3 °F -18.9 °F 75% 30.40 in 10.0 mi WSW 9.2 mph - N/A   Clear
5:53 AM -11.9 °F -31.0 °F -18.9 °F 71% 30.37 in 10.0 mi SW 10.4 mph - N/A   Clear
6:53 AM -11.9 °F -29.9 °F -18.0 °F 74% 30.35 in 10.0 mi WSW 9.2 mph - N/A   Clear
7:53 AM -14.1 °F -31.3 °F -18.9 °F 79% 30.33 in 10.0 mi WSW 8.1 mph - N/A   Scattered Clouds
8:53 AM -11.0 °F -22.8 °F -17.0 °F 75% 30.32 in 9.0 mi SW 4.6 mph - N/A   Overcast
9:53 AM -5.1 °F -13.6 °F -9.9 °F 80% 30.30 in 6.0 mi WSW 3.5 mph - 0.00 in Snow Light Snow
10:53 AM 5.0 °F -12.3 °F -2.9 °F 70% 30.29 in 9.0 mi West 13.8 mph - 0.00 in   Overcast
11:53 AM 7.0 °F -10.4 °F -0.9 °F 70% 30.27 in 10.0 mi West 15.0 mph - N/A   Overcast
12:53 PM 8.1 °F -11.2 °F -0.0 °F 70% 30.25 in 7.0 mi WNW 19.6 mph - N/A   Overcast
1:53 PM 9.0 °F -11.8 °F -0.0 °F 67% 30.22 in 7.0 mi WNW 24.2 mph - N/A   Mostly Cloudy
2:53 PM 8.1 °F -12.6 °F -0.0 °F 70% 30.21 in 6.0 mi West 23.0 mph 29.9 mph 0.00 in   Haze
3:53 PM 7.0 °F -13.6 °F -2.0 °F 67% 30.20 in 6.0 mi WNW 21.9 mph - N/A   Haze
4:53 PM 6.1 °F -11.6 °F -2.0 °F 69% 30.19 in 10.0 mi West 15.0 mph - N/A   Scattered Clouds
5:53 PM 3.9 °F -15.0 °F -5.1 °F 66% 30.16 in 10.0 mi West 16.1 mph - 0.01 in   Partly Cloudy
6:53 PM 3.0 °F -15.5 °F -6.0 °F 66% 30.15 in 10.0 mi WSW 15.0 mph - N/A   Clear
7:53 PM 1.9 °F -16.2 °F -6.0 °F 69% 30.12 in 10.0 mi WSW 13.8 mph - N/A   Clear
8:53 PM 1.0 °F -15.8 °F -7.1 °F 69% 30.10 in 10.0 mi WSW 11.5 mph - N/A   Clear
9:53 PM 1.0 °F -18.7 °F -8.0 °F 66% 30.06 in 10.0 mi WSW 16.1 mph - N/A   Clear
10:53 PM 1.0 °F -16.6 °F -8.0 °F 66% 30.05 in 10.0 mi WSW 12.7 mph - N/A   Clear
11:53 PM 1.0 °F -19.3 °F -8.0 °F 66% 30.04 in 10.0 mi West 17.3 mph - N/A   Clear